KUIPER-00259

导读

KUIPER-00259是法国于2026年2月12日发射的卫星,隶属亚马逊柯伊伯(Project Kuiper)低轨卫星互联网星座,该星座计划由超3200颗低轨卫星组网,旨在为全球未覆盖和网络欠发达地区提供高速普惠宽带服务,对标SpaceX星链。卫星搭载多波束相控阵天线,支持容量按需分配,配备Ka频段载荷,可配合激光星间链路实现10Gbit/s传输,是柯伊伯星座推进商业服务部署的组成卫星。

基本信息
目录编号:
67786
目录名称:
KUIPER-00259
国际标识:
2026-030Y
轨道中心:
EARTH
卫星名称:
KUIPER-00259
卫星全名:
KUIPER-00259
卫星状态:
在轨 (已飞行211 天)
发射日期:
2026-02-12 UTC
国别 :
美国 (US)
星等 :
--
该卫星已列入 空间交会检测服务 Space Conjunction Data Service (SCDS) ,当前飞行风险评估等级: 无高风险
轨道信息
数据来源 国际轨道数据
星历时间: 2026-09-11T07:16:39+0800
20小时前
查看轨道信息
半长轴: 7007.684km
偏心率: 0.0000675
轨道倾角: 51.898°
近地点辐角 110.076°
升交点赤经 98.797°
平近点角 250.027°
近地点: 629.073km
远地点: 630.021km
周期: 97.302分钟
每日圈数: 14.799295
详细信息
使用方式:
暂无
2D轨道图
3D轨道图
轨道高度分析图
轨道倾角分析图
轨道综合分析图
查看轨道综合分析图
交会数据列表
事件ID 空间交会对象 最接近时刻(TCA) 交会距离 交会风险概率(CRP) 交会风险指数(CRI) 操作
CDM_260913-152406-007906-778622
2026-09-13T
15:24:31+0000
1.851 km
极远距离
3.469786E-6 低风险 0.46
CDM_260913-143506-007906-778622
2026-09-13T
14:35:52+0000
2.330 km
极远距离
1.984611E-6 低风险 0.41
与全量物体交会距离演化趋势
与全量物体交会风险概率演化趋势